owner,sensor,date,latitude,longitude,vertical_datum,wind_speed,wind_to_direction,wind_speed_of_gust,qcFlag 
ADCP,ioos:station:wmo:42395:2,2019-05-01T00:00:00Z,26.4040,-90.7920,3.0,5.2872682331,119.53125,6.60909093113, 
ADCP,ioos:station:wmo:42395:2,2019-05-01T00:20:00Z,26.4040,-90.7920,3.0,5.61772390761,117.42188,6.93953532613, 
ADCP,ioos:station:wmo:42395:2,2019-05-01T00:40:00Z,26.4040,-90.7920,3.0,5.94817958211,117.42188,7.38014665197, 
ADCP,ioos:station:wmo:42395:2,2019-05-01T01:00:00Z,26.4040,-90.7920,3.0,6.05832395394,119.53125,7.49030230331, 
ADCP,ioos:station:wmo:42395:2,2019-05-01T01:20:00Z,26.4040,-90.7920,3.0,6.27863525662,119.53125,8.04105800099, 
ADCP,ioos:station:wmo:42395:2,2019-05-01T01:40:00Z,26.4040,-90.7920,3.0,6.16847960528,118.82813,7.82074669831, 
ADCP,ioos:station:wmo:42395:2,2019-05-01T02:00:00Z,26.4040,-90.7920,3.0,6.38877962845,116.71875,7.93090234965, 
ADCP,ioos:station:wmo:42395:2,2019-05-01T02:20:00Z,26.4040,-90.7920,3.0,6.71923530296,118.125,8.37151367549, 
ADCP,ioos:station:wmo:42395:2,2019-05-01T02:40:00Z,26.4040,-90.7920,3.0,7.1598466288,118.82813,8.81211372183, 
ADCP,ioos:station:wmo:42395:2,2019-05-01T03:00:00Z,26.4040,-90.7920,3.0,7.93090234965,121.64063,9.69332509401, 
ADCP,ioos:station:wmo:42395:2,2019-05-01T03:20:00Z,26.4040,-90.7920,3.0,8.70195807049,124.45313,10.6846921175, 
ADCP,ioos:station:wmo:42395:2,2019-05-01T03:40:00Z,26.4040,-90.7920,3.0,8.92226937317,125.85938,10.9049921407, 
ADCP,ioos:station:wmo:42395:2,2019-05-01T04:00:00Z,26.4040,-90.7920,3.0,9.032413745,126.5625,11.2354478152, 
ADCP,ioos:station:wmo:42395:2,2019-05-01T04:20:00Z,26.4040,-90.7920,3.0,8.48165804732,127.96875,10.5745364662, 
ADCP,ioos:station:wmo:42395:2,2019-05-01T04:40:00Z,26.4040,-90.7920,3.0,8.48165804732,127.26563,10.354236443, 
ADCP,ioos:station:wmo:42395:2,2019-05-01T05:00:00Z,26.4040,-90.7920,3.0,9.69332509401,129.375,12.1166591874, 
ADCP,ioos:station:wmo:42395:2,2019-05-01T05:20:00Z,26.4040,-90.7920,3.0,9.69332509401,132.1875,12.1166591874, 
ADCP,ioos:station:wmo:42395:2,2019-05-01T05:40:00Z,26.4040,-90.7920,3.0,10.1339364199,132.89063,12.5572592337, 
ADCP,ioos:station:wmo:42395:2,2019-05-01T06:00:00Z,26.4040,-90.7920,3.0,10.1339364199,132.89063,12.2268035592, 
ADCP,ioos:station:wmo:42395:2,2019-05-01T06:20:00Z,26.4040,-90.7920,3.0,10.354236443,133.59375,12.9978705596, 
ADCP,ioos:station:wmo:42395:2,2019-05-01T06:40:00Z,26.4040,-90.7920,3.0,10.1339364199,134.29688,12.8877149082, 
ADCP,ioos:station:wmo:42395:2,2019-05-01T07:00:00Z,26.4040,-90.7920,3.0,10.354236443,135.70313,12.7775705364, 
ADCP,ioos:station:wmo:42395:2,2019-05-01T07:20:00Z,26.4040,-90.7920,3.0,10.9049921407,136.40625,13.6587819086, 
ADCP,ioos:station:wmo:42395:2,2019-05-01T07:40:00Z,26.4040,-90.7920,3.0,10.2440807917,136.40625,12.7775705364, 
ADCP,ioos:station:wmo:42395:2,2019-05-01T08:00:00Z,26.4040,-90.7920,3.0,10.5745364662,135.70313,13.2181705827, 
ADCP,ioos:station:wmo:42395:2,2019-05-01T08:20:00Z,26.4040,-90.7920,3.0,10.5745364662,137.10938,13.7689262804, 
ADCP,ioos:station:wmo:42395:2,2019-05-01T08:40:00Z,26.4040,-90.7920,3.0,10.7948364894,137.8125,13.8790819318, 
ADCP,ioos:station:wmo:42395:2,2019-05-01T09:00:00Z,26.4040,-90.7920,3.0,11.1252921639,139.21875,14.2095376063, 
ADCP,ioos:station:wmo:42395:2,2019-05-01T09:20:00Z,26.4040,-90.7920,3.0,10.4643808149,139.21875,13.7689262804, 
ADCP,ioos:station:wmo:42395:2,2019-05-01T09:40:00Z,26.4040,-90.7920,3.0,10.354236443,141.32813,13.4384706059, 
ADCP,ioos:station:wmo:42395:2,2019-05-01T10:00:00Z,26.4040,-90.7920,3.0,10.9049921407,139.92188,13.9892263036, 
ADCP,ioos:station:wmo:42395:2,2019-05-01T10:20:00Z,26.4040,-90.7920,3.0,10.6846921175,139.92188,13.1080149314, 
ADCP,ioos:station:wmo:42395:2,2019-05-01T10:40:00Z,26.4040,-90.7920,3.0,10.7948364894,139.92188,13.9892263036, 
ADCP,ioos:station:wmo:42395:2,2019-05-01T11:00:00Z,26.4040,-90.7920,3.0,9.91362511718,141.32813,12.6674148851, 
ADCP,ioos:station:wmo:42395:2,2019-05-01T11:20:00Z,26.4040,-90.7920,3.0,9.80348074535,141.32813,12.0065035361, 
ADCP,ioos:station:wmo:42395:2,2019-05-01T11:40:00Z,26.4040,-90.7920,3.0,9.80348074535,142.73438,12.4471148619, 
ADCP,ioos:station:wmo:42395:2,2019-05-01T12:00:00Z,26.4040,-90.7920,3.0,9.47302507085,142.73438,11.8963591642, 
ADCP,ioos:station:wmo:42395:2,2019-05-01T12:20:00Z,26.4040,-90.7920,3.0,8.92226937317,142.73438,11.6760478616, 
ADCP,ioos:station:wmo:42395:2,2019-05-01T12:40:00Z,26.4040,-90.7920,3.0,9.14256939634,139.92188,11.4557478384, 
ADCP,ioos:station:wmo:42395:2,2019-05-01T13:00:00Z,26.4040,-90.7920,3.0,9.14256939634,139.92188,11.2354478152, 
ADCP,ioos:station:wmo:42395:2,2019-05-01T13:20:00Z,26.4040,-90.7920,3.0,9.032413745,138.51563,11.7862035129, 
ADCP,ioos:station:wmo:42395:2,2019-05-01T13:40:00Z,26.4040,-90.7920,3.0,8.81211372183,137.8125,11.015147792, 
ADCP,ioos:station:wmo:42395:2,2019-05-01T14:00:00Z,26.4040,-90.7920,3.0,8.26135802416,138.51563,9.91362511718, 
ADCP,ioos:station:wmo:42395:2,2019-05-01T14:20:00Z,26.4040,-90.7920,3.0,7.93090234965,137.8125,9.80348074535, 
ADCP,ioos:station:wmo:42395:2,2019-05-01T14:40:00Z,26.4040,-90.7920,3.0,8.04105800099,137.10938,9.80348074535, 
ADCP,ioos:station:wmo:42395:2,2019-05-01T15:00:00Z,26.4040,-90.7920,3.0,7.93090234965,137.10938,10.1339364199, 
ADCP,ioos:station:wmo:42395:2,2019-05-01T15:20:00Z,26.4040,-90.7920,3.0,7.38014665197,139.92188,9.25272504768, 
ADCP,ioos:station:wmo:42395:2,2019-05-01T15:40:00Z,26.4040,-90.7920,3.0,7.26999100063,140.625,9.14256939634, 
ADCP,ioos:station:wmo:42395:2,2019-05-01T16:00:00Z,26.4040,-90.7920,3.0,6.8293909543,143.4375,8.37151367549, 
ADCP,ioos:station:wmo:42395:2,2019-05-01T16:20:00Z,26.4040,-90.7920,3.0,6.38877962845,144.14063,7.71060232648, 
ADCP,ioos:station:wmo:42395:2,2019-05-01T16:40:00Z,26.4040,-90.7920,3.0,6.16847960528,139.92188,8.04105800099, 
ADCP,ioos:station:wmo:42395:2,2019-05-01T17:00:00Z,26.4040,-90.7920,3.0,6.49893527979,137.10938,8.26135802416, 
ADCP,ioos:station:wmo:42395:2,2019-05-01T17:20:00Z,26.4040,-90.7920,3.0,6.38877962845,135.0,7.71060232648, 
ADCP,ioos:station:wmo:42395:2,2019-05-01T17:40:00Z,26.4040,-90.7920,3.0,6.49893527979,136.40625,7.93090234965, 
ADCP,ioos:station:wmo:42395:2,2019-05-01T18:00:00Z,26.4040,-90.7920,3.0,6.05832395394,135.70313,7.71060232648, 
ADCP,ioos:station:wmo:42395:2,2019-05-01T18:20:00Z,26.4040,-90.7920,3.0,6.16847960528,132.1875,7.38014665197, 
ADCP,ioos:station:wmo:42395:2,2019-05-01T18:40:00Z,26.4040,-90.7920,3.0,6.60909093113,126.5625,8.26135802416, 
ADCP,ioos:station:wmo:42395:2,2019-05-01T19:00:00Z,26.4040,-90.7920,3.0,6.71923530296,125.85938,8.26135802416, 
ADCP,ioos:station:wmo:42395:2,2019-05-01T19:20:00Z,26.4040,-90.7920,3.0,6.93953532613,125.15625,9.25272504768, 
ADCP,ioos:station:wmo:42395:2,2019-05-01T19:40:00Z,26.4040,-90.7920,3.0,6.8293909543,125.85938,8.48165804732, 
ADCP,ioos:station:wmo:42395:2,2019-05-01T20:00:00Z,26.4040,-90.7920,3.0,6.49893527979,125.15625,8.04105800099, 
ADCP,ioos:station:wmo:42395:2,2019-05-01T20:20:00Z,26.4040,-90.7920,3.0,6.93953532613,124.45313,9.14256939634, 
ADCP,ioos:station:wmo:42395:2,2019-05-01T20:40:00Z,26.4040,-90.7920,3.0,6.38877962845,121.64063,8.37151367549, 
ADCP,ioos:station:wmo:42395:2,2019-05-01T21:00:00Z,26.4040,-90.7920,3.0,6.27863525662,122.34375,8.26135802416, 
ADCP,ioos:station:wmo:42395:2,2019-05-01T21:20:00Z,26.4040,-90.7920,3.0,6.38877962845,121.64063,8.26135802416, 
ADCP,ioos:station:wmo:42395:2,2019-05-01T21:40:00Z,26.4040,-90.7920,3.0,6.60909093113,121.64063,8.59181369866, 
ADCP,ioos:station:wmo:42395:2,2019-05-01T22:00:00Z,26.4040,-90.7920,3.0,7.04969097747,118.82813,8.48165804732, 
ADCP,ioos:station:wmo:42395:2,2019-05-01T22:20:00Z,26.4040,-90.7920,3.0,6.8293909543,119.53125,8.70195807049, 
ADCP,ioos:station:wmo:42395:2,2019-05-01T22:40:00Z,26.4040,-90.7920,3.0,6.38877962845,116.71875,8.26135802416, 
ADCP,ioos:station:wmo:42395:2,2019-05-01T23:00:00Z,26.4040,-90.7920,3.0,6.38877962845,113.90625,8.04105800099, 
ADCP,ioos:station:wmo:42395:2,2019-05-01T23:20:00Z,26.4040,-90.7920,3.0,6.27863525662,111.79688,7.82074669831, 
ADCP,ioos:station:wmo:42395:2,2019-05-01T23:40:00Z,26.4040,-90.7920,3.0,6.49893527979,112.5,9.032413745, 
ADCP,ioos:station:wmo:42395:2,2019-05-02T00:00:00Z,26.4040,-90.7920,3.0,6.71923530296,113.90625,8.37151367549, 
ADCP,ioos:station:wmo:42395:2,2019-05-02T00:20:00Z,26.4040,-90.7920,3.0,6.93953532613,113.90625,8.81211372183, 
ADCP,ioos:station:wmo:42395:2,2019-05-02T00:40:00Z,26.4040,-90.7920,3.0,7.49030230331,115.3125,9.36286941951, 
ADCP,ioos:station:wmo:42395:2,2019-05-02T01:00:00Z,26.4040,-90.7920,3.0,6.93953532613,114.60938,8.70195807049, 
ADCP,ioos:station:wmo:42395:2,2019-05-02T01:20:00Z,26.4040,-90.7920,3.0,7.38014665197,114.60938,9.032413745, 
ADCP,ioos:station:wmo:42395:2,2019-05-02T01:40:00Z,26.4040,-90.7920,3.0,7.71060232648,113.90625,9.58316944268, 
ADCP,ioos:station:wmo:42395:2,2019-05-02T02:00:00Z,26.4040,-90.7920,3.0,7.60044667514,113.90625,9.36286941951, 
ADCP,ioos:station:wmo:42395:2,2019-05-02T02:20:00Z,26.4040,-90.7920,3.0,7.60044667514,113.20313,9.032413745, 
ADCP,ioos:station:wmo:42395:2,2019-05-02T02:40:00Z,26.4040,-90.7920,3.0,7.71060232648,111.79688,9.58316944268, 
ADCP,ioos:station:wmo:42395:2,2019-05-02T03:00:00Z,26.4040,-90.7920,3.0,8.15120237282,111.09375,10.2440807917, 
ADCP,ioos:station:wmo:42395:2,2019-05-02T03:20:00Z,26.4040,-90.7920,3.0,7.71060232648,110.39063,9.91362511718, 
ADCP,ioos:station:wmo:42395:2,2019-05-02T03:40:00Z,26.4040,-90.7920,3.0,7.49030230331,111.79688,9.58316944268, 
ADCP,ioos:station:wmo:42395:2,2019-05-02T04:00:00Z,26.4040,-90.7920,3.0,7.71060232648,113.20313,9.91362511718, 
ADCP,ioos:station:wmo:42395:2,2019-05-02T04:20:00Z,26.4040,-90.7920,3.0,7.60044667514,110.39063,9.58316944268, 
ADCP,ioos:station:wmo:42395:2,2019-05-02T04:40:00Z,26.4040,-90.7920,3.0,8.92226937317,112.5,11.015147792, 
ADCP,ioos:station:wmo:42395:2,2019-05-02T05:00:00Z,26.4040,-90.7920,3.0,8.26135802416,111.79688,10.0237807685, 
ADCP,ioos:station:wmo:42395:2,2019-05-02T05:20:00Z,26.4040,-90.7920,3.0,7.71060232648,113.90625,9.36286941951, 
ADCP,ioos:station:wmo:42395:2,2019-05-02T05:40:00Z,26.4040,-90.7920,3.0,8.48165804732,115.3125,10.5745364662, 
ADCP,ioos:station:wmo:42395:2,2019-05-02T06:00:00Z,26.4040,-90.7920,3.0,7.71060232648,118.125,9.91362511718, 
ADCP,ioos:station:wmo:42395:2,2019-05-02T06:20:00Z,26.4040,-90.7920,3.0,7.93090234965,117.42188,10.0237807685, 
ADCP,ioos:station:wmo:42395:2,2019-05-02T06:40:00Z,26.4040,-90.7920,3.0,8.15120237282,125.85938,10.354236443, 
ADCP,ioos:station:wmo:42395:2,2019-05-02T07:00:00Z,26.4040,-90.7920,3.0,8.48165804732,120.23438,11.015147792, 
ADCP,ioos:station:wmo:42395:2,2019-05-02T07:20:00Z,26.4040,-90.7920,3.0,9.032413745,121.64063,11.2354478152, 
ADCP,ioos:station:wmo:42395:2,2019-05-02T07:40:00Z,26.4040,-90.7920,3.0,9.47302507085,120.9375,11.5659034897, 
ADCP,ioos:station:wmo:42395:2,2019-05-02T08:00:00Z,26.4040,-90.7920,3.0,8.59181369866,125.15625,10.9049921407, 
ADCP,ioos:station:wmo:42395:2,2019-05-02T08:20:00Z,26.4040,-90.7920,3.0,8.26135802416,129.375,10.1339364199, 
ADCP,ioos:station:wmo:42395:2,2019-05-02T08:40:00Z,26.4040,-90.7920,3.0,8.26135802416,130.07813,10.9049921407, 
ADCP,ioos:station:wmo:42395:2,2019-05-02T09:00:00Z,26.4040,-90.7920,3.0,7.93090234965,129.375,10.1339364199, 
ADCP,ioos:station:wmo:42395:2,2019-05-02T09:20:00Z,26.4040,-90.7920,3.0,7.49030230331,132.1875,9.36286941951, 
ADCP,ioos:station:wmo:42395:2,2019-05-02T09:40:00Z,26.4040,-90.7920,3.0,7.82074669831,131.48438,10.5745364662, 
ADCP,ioos:station:wmo:42395:2,2019-05-02T10:00:00Z,26.4040,-90.7920,3.0,8.15120237282,127.96875,10.354236443, 
ADCP,ioos:station:wmo:42395:2,2019-05-02T10:20:00Z,26.4040,-90.7920,3.0,7.49030230331,125.85938,9.25272504768, 
ADCP,ioos:station:wmo:42395:2,2019-05-02T10:40:00Z,26.4040,-90.7920,3.0,7.49030230331,127.96875,9.91362511718, 
ADCP,ioos:station:wmo:42395:2,2019-05-02T11:00:00Z,26.4040,-90.7920,3.0,7.60044667514,129.375,9.25272504768, 
ADCP,ioos:station:wmo:42395:2,2019-05-02T11:20:00Z,26.4040,-90.7920,3.0,7.71060232648,127.26563,9.47302507085, 
ADCP,ioos:station:wmo:42395:2,2019-05-02T11:40:00Z,26.4040,-90.7920,3.0,6.93953532613,130.07813,9.032413745, 
ADCP,ioos:station:wmo:42395:2,2019-05-02T12:00:00Z,26.4040,-90.7920,3.0,7.1598466288,124.45313,9.032413745, 
ADCP,ioos:station:wmo:42395:2,2019-05-02T12:20:00Z,26.4040,-90.7920,3.0,7.04969097747,130.07813,8.81211372183, 
ADCP,ioos:station:wmo:42395:2,2019-05-02T12:40:00Z,26.4040,-90.7920,3.0,7.93090234965,129.375,9.47302507085, 
ADCP,ioos:station:wmo:42395:2,2019-05-02T13:00:00Z,26.4040,-90.7920,3.0,7.71060232648,130.07813,9.25272504768, 
ADCP,ioos:station:wmo:42395:2,2019-05-02T13:20:00Z,26.4040,-90.7920,3.0,7.1598466288,133.59375,8.92226937317, 
ADCP,ioos:station:wmo:42395:2,2019-05-02T13:40:00Z,26.4040,-90.7920,3.0,7.49030230331,137.10938,9.25272504768, 
ADCP,ioos:station:wmo:42395:2,2019-05-02T14:00:00Z,26.4040,-90.7920,3.0,7.93090234965,137.8125,9.58316944268, 
ADCP,ioos:station:wmo:42395:2,2019-05-02T14:20:00Z,26.4040,-90.7920,3.0,8.15120237282,135.70313,9.91362511718, 
ADCP,ioos:station:wmo:42395:2,2019-05-02T14:40:00Z,26.4040,-90.7920,3.0,7.71060232648,133.59375,9.36286941951, 
ADCP,ioos:station:wmo:42395:2,2019-05-02T15:00:00Z,26.4040,-90.7920,3.0,7.04969097747,134.29688,8.92226937317, 
ADCP,ioos:station:wmo:42395:2,2019-05-02T15:20:00Z,26.4040,-90.7920,3.0,7.04969097747,132.1875,8.70195807049, 
ADCP,ioos:station:wmo:42395:2,2019-05-02T15:40:00Z,26.4040,-90.7920,3.0,6.8293909543,131.48438,8.37151367549, 
ADCP,ioos:station:wmo:42395:2,2019-05-02T16:00:00Z,26.4040,-90.7920,3.0,6.38877962845,130.07813,8.04105800099, 
ADCP,ioos:station:wmo:42395:2,2019-05-02T16:20:00Z,26.4040,-90.7920,3.0,5.94817958211,128.67188,7.38014665197, 
ADCP,ioos:station:wmo:42395:2,2019-05-02T16:40:00Z,26.4040,-90.7920,3.0,5.83802393078,132.1875,7.71060232648, 
ADCP,ioos:station:wmo:42395:2,2019-05-02T17:00:00Z,26.4040,-90.7920,3.0,5.61772390761,132.1875,7.1598466288, 
ADCP,ioos:station:wmo:42395:2,2019-05-02T17:20:00Z,26.4040,-90.7920,3.0,5.39742388444,129.375,6.8293909543, 
ADCP,ioos:station:wmo:42395:2,2019-05-02T17:40:00Z,26.4040,-90.7920,3.0,5.50756825627,124.45313,6.93953532613, 
ADCP,ioos:station:wmo:42395:2,2019-05-02T18:00:00Z,26.4040,-90.7920,3.0,4.73651253542,120.23438,6.27863525662, 
ADCP,ioos:station:wmo:42395:2,2019-05-02T18:20:00Z,26.4040,-90.7920,3.0,4.40605686092,115.3125,5.83802393078, 
ADCP,ioos:station:wmo:42395:2,2019-05-02T18:40:00Z,26.4040,-90.7920,3.0,3.63500114007,113.90625,5.2872682331, 
ADCP,ioos:station:wmo:42395:2,2019-05-02T19:00:00Z,26.4040,-90.7920,3.0,3.30454546556,119.53125,4.62635688409, 
ADCP,ioos:station:wmo:42395:2,2019-05-02T19:20:00Z,26.4040,-90.7920,3.0,2.97408979106,111.09375,4.18575683775, 
ADCP,ioos:station:wmo:42395:2,2019-05-02T19:40:00Z,26.4040,-90.7920,3.0,2.53347846521,98.4375,3.7451455119, 
ADCP,ioos:station:wmo:42395:2,2019-05-02T20:00:00Z,26.4040,-90.7920,3.0,1.98272276754,95.625,3.19438981423, 
ADCP,ioos:station:wmo:42395:2,2019-05-02T20:20:00Z,26.4040,-90.7920,3.0,2.42333409338,89.29688,3.52484548873, 
ADCP,ioos:station:wmo:42395:2,2019-05-02T20:40:00Z,26.4040,-90.7920,3.0,2.86393413972,90.0,4.07560118641, 
ADCP,ioos:station:wmo:42395:2,2019-05-02T21:00:00Z,26.4040,-90.7920,3.0,3.19438981423,106.17188,4.18575683775, 
ADCP,ioos:station:wmo:42395:2,2019-05-02T21:20:00Z,26.4040,-90.7920,3.0,2.97408979106,111.79688,4.18575683775, 
ADCP,ioos:station:wmo:42395:2,2019-05-02T21:40:00Z,26.4040,-90.7920,3.0,3.19438981423,115.3125,4.40605686092, 
ADCP,ioos:station:wmo:42395:2,2019-05-02T22:00:00Z,26.4040,-90.7920,3.0,3.4146898374,108.28125,4.73651253542, 
ADCP,ioos:station:wmo:42395:2,2019-05-02T22:20:00Z,26.4040,-90.7920,3.0,4.40605686092,105.46875,5.72787955894, 
ADCP,ioos:station:wmo:42395:2,2019-05-02T22:40:00Z,26.4040,-90.7920,3.0,5.2872682331,106.875,6.60909093113, 
ADCP,ioos:station:wmo:42395:2,2019-05-02T23:00:00Z,26.4040,-90.7920,3.0,5.94817958211,109.6875,7.04969097747, 
ADCP,ioos:station:wmo:42395:2,2019-05-02T23:20:00Z,26.4040,-90.7920,3.0,6.27863525662,110.39063,7.93090234965, 
ADCP,ioos:station:wmo:42395:2,2019-05-02T23:40:00Z,26.4040,-90.7920,3.0,5.50756825627,106.17188,7.04969097747, 
ADCP,ioos:station:wmo:42395:2,2019-05-03T00:00:00Z,26.4040,-90.7920,3.0,6.16847960528,104.0625,7.71060232648, 
ADCP,ioos:station:wmo:42395:2,2019-05-03T00:20:00Z,26.4040,-90.7920,3.0,5.06696820993,105.46875,6.38877962845, 
ADCP,ioos:station:wmo:42395:2,2019-05-03T00:40:00Z,26.4040,-90.7920,3.0,4.95681255859,107.57813,6.27863525662, 
ADCP,ioos:station:wmo:42395:2,2019-05-03T01:00:00Z,26.4040,-90.7920,3.0,4.29590120958,104.0625,5.61772390761, 
ADCP,ioos:station:wmo:42395:2,2019-05-03T01:20:00Z,26.4040,-90.7920,3.0,4.62635688409,106.17188,5.94817958211, 
ADCP,ioos:station:wmo:42395:2,2019-05-03T01:40:00Z,26.4040,-90.7920,3.0,4.40605686092,103.35938,5.50756825627, 
ADCP,ioos:station:wmo:42395:2,2019-05-03T02:00:00Z,26.4040,-90.7920,3.0,3.96545681458,92.8125,5.06696820993, 
ADCP,ioos:station:wmo:42395:2,2019-05-03T02:20:00Z,26.4040,-90.7920,3.0,5.2872682331,101.95313,6.71923530296, 
ADCP,ioos:station:wmo:42395:2,2019-05-03T02:40:00Z,26.4040,-90.7920,3.0,5.06696820993,101.25,6.27863525662, 
ADCP,ioos:station:wmo:42395:2,2019-05-03T03:00:00Z,26.4040,-90.7920,3.0,4.29590120958,97.73438,5.50756825627, 
ADCP,ioos:station:wmo:42395:2,2019-05-03T03:20:00Z,26.4040,-90.7920,3.0,4.62635688409,98.4375,5.83802393078, 
ADCP,ioos:station:wmo:42395:2,2019-05-03T03:40:00Z,26.4040,-90.7920,3.0,5.39742388444,97.03125,6.8293909543, 
ADCP,ioos:station:wmo:42395:2,2019-05-03T04:00:00Z,26.4040,-90.7920,3.0,6.05832395394,92.8125,7.1598466288, 
ADCP,ioos:station:wmo:42395:2,2019-05-03T04:20:00Z,26.4040,-90.7920,3.0,6.16847960528,99.84375,7.38014665197, 
ADCP,ioos:station:wmo:42395:2,2019-05-03T04:40:00Z,26.4040,-90.7920,3.0,6.16847960528,102.65625,7.60044667514, 
ADCP,ioos:station:wmo:42395:2,2019-05-03T05:00:00Z,26.4040,-90.7920,3.0,6.05832395394,108.98438,7.49030230331, 
ADCP,ioos:station:wmo:42395:2,2019-05-03T05:20:00Z,26.4040,-90.7920,3.0,6.16847960528,110.39063,7.93090234965, 
ADCP,ioos:station:wmo:42395:2,2019-05-03T05:40:00Z,26.4040,-90.7920,3.0,5.83802393078,113.20313,7.49030230331, 
ADCP,ioos:station:wmo:42395:2,2019-05-03T06:00:00Z,26.4040,-90.7920,3.0,5.61772390761,104.76563,6.71923530296, 
ADCP,ioos:station:wmo:42395:2,2019-05-03T06:20:00Z,26.4040,-90.7920,3.0,5.83802393078,108.98438,7.26999100063, 
ADCP,ioos:station:wmo:42395:2,2019-05-03T06:40:00Z,26.4040,-90.7920,3.0,5.83802393078,120.23438,7.38014665197, 
ADCP,ioos:station:wmo:42395:2,2019-05-03T07:00:00Z,26.4040,-90.7920,3.0,5.94817958211,120.23438,7.04969097747, 
ADCP,ioos:station:wmo:42395:2,2019-05-03T07:20:00Z,26.4040,-90.7920,3.0,4.73651253542,111.09375,5.83802393078, 
ADCP,ioos:station:wmo:42395:2,2019-05-03T07:40:00Z,26.4040,-90.7920,3.0,4.40605686092,123.75,5.39742388444, 
ADCP,ioos:station:wmo:42395:2,2019-05-03T08:00:00Z,26.4040,-90.7920,3.0,4.95681255859,121.64063,6.38877962845, 
ADCP,ioos:station:wmo:42395:2,2019-05-03T08:20:00Z,26.4040,-90.7920,3.0,4.95681255859,119.53125,6.05832395394, 
ADCP,ioos:station:wmo:42395:2,2019-05-03T08:40:00Z,26.4040,-90.7920,3.0,4.40605686092,119.53125,5.39742388444, 
ADCP,ioos:station:wmo:42395:2,2019-05-03T09:00:00Z,26.4040,-90.7920,3.0,4.73651253542,114.60938,5.72787955894, 
ADCP,ioos:station:wmo:42395:2,2019-05-03T09:20:00Z,26.4040,-90.7920,3.0,5.39742388444,116.01563,6.71923530296, 
ADCP,ioos:station:wmo:42395:2,2019-05-03T09:40:00Z,26.4040,-90.7920,3.0,5.2872682331,121.64063,6.38877962845, 
ADCP,ioos:station:wmo:42395:2,2019-05-03T10:00:00Z,26.4040,-90.7920,3.0,5.2872682331,127.96875,6.71923530296, 
ADCP,ioos:station:wmo:42395:2,2019-05-03T10:20:00Z,26.4040,-90.7920,3.0,5.2872682331,130.07813,6.27863525662, 
ADCP,ioos:station:wmo:42395:2,2019-05-03T10:40:00Z,26.4040,-90.7920,3.0,4.84666818676,133.59375,6.16847960528, 
ADCP,ioos:station:wmo:42395:2,2019-05-03T11:00:00Z,26.4040,-90.7920,3.0,5.06696820993,136.40625,6.60909093113, 
ADCP,ioos:station:wmo:42395:2,2019-05-03T11:20:00Z,26.4040,-90.7920,3.0,4.62635688409,137.10938,5.94817958211, 
ADCP,ioos:station:wmo:42395:2,2019-05-03T11:40:00Z,26.4040,-90.7920,3.0,5.39742388444,139.21875,6.38877962845, 
ADCP,ioos:station:wmo:42395:2,2019-05-03T12:00:00Z,26.4040,-90.7920,3.0,5.61772390761,140.625,6.60909093113, 
ADCP,ioos:station:wmo:42395:2,2019-05-03T12:20:00Z,26.4040,-90.7920,3.0,4.40605686092,144.84375,5.39742388444, 
ADCP,ioos:station:wmo:42395:2,2019-05-03T12:40:00Z,26.4040,-90.7920,3.0,4.51621251225,137.10938,5.50756825627, 
ADCP,ioos:station:wmo:42395:2,2019-05-03T13:00:00Z,26.4040,-90.7920,3.0,4.62635688409,129.375,5.72787955894, 
ADCP,ioos:station:wmo:42395:2,2019-05-03T13:20:00Z,26.4040,-90.7920,3.0,5.50756825627,128.67188,6.71923530296, 
ADCP,ioos:station:wmo:42395:2,2019-05-03T13:40:00Z,26.4040,-90.7920,3.0,5.39742388444,130.07813,6.60909093113, 
ADCP,ioos:station:wmo:42395:2,2019-05-03T14:00:00Z,26.4040,-90.7920,3.0,5.72787955894,128.67188,7.1598466288, 
ADCP,ioos:station:wmo:42395:2,2019-05-03T14:20:00Z,26.4040,-90.7920,3.0,6.05832395394,122.34375,7.1598466288, 
ADCP,ioos:station:wmo:42395:2,2019-05-03T14:40:00Z,26.4040,-90.7920,3.0,5.50756825627,123.75,6.71923530296, 
ADCP,ioos:station:wmo:42395:2,2019-05-03T15:00:00Z,26.4040,-90.7920,3.0,5.50756825627,124.45313,6.71923530296, 
ADCP,ioos:station:wmo:42395:2,2019-05-03T15:20:00Z,26.4040,-90.7920,3.0,5.61772390761,124.45313,6.8293909543, 
ADCP,ioos:station:wmo:42395:2,2019-05-03T15:40:00Z,26.4040,-90.7920,3.0,5.83802393078,127.96875,6.71923530296, 
ADCP,ioos:station:wmo:42395:2,2019-05-03T16:00:00Z,26.4040,-90.7920,3.0,5.50756825627,125.15625,6.8293909543, 
ADCP,ioos:station:wmo:42395:2,2019-05-03T16:20:00Z,26.4040,-90.7920,3.0,5.72787955894,123.04688,7.26999100063, 
ADCP,ioos:station:wmo:42395:2,2019-05-03T16:40:00Z,26.4040,-90.7920,3.0,5.2872682331,125.15625,6.38877962845, 
ADCP,ioos:station:wmo:42395:2,2019-05-03T17:00:00Z,26.4040,-90.7920,3.0,4.73651253542,126.5625,6.16847960528, 
ADCP,ioos:station:wmo:42395:2,2019-05-03T17:20:00Z,26.4040,-90.7920,3.0,4.73651253542,125.15625,5.94817958211, 
ADCP,ioos:station:wmo:42395:2,2019-05-03T17:40:00Z,26.4040,-90.7920,3.0,4.73651253542,127.26563,5.72787955894, 
ADCP,ioos:station:wmo:42395:2,2019-05-03T18:00:00Z,26.4040,-90.7920,3.0,4.95681255859,132.1875,6.16847960528, 
ADCP,ioos:station:wmo:42395:2,2019-05-03T18:20:00Z,26.4040,-90.7920,3.0,4.73651253542,135.70313,5.83802393078, 
ADCP,ioos:station:wmo:42395:2,2019-05-03T18:40:00Z,26.4040,-90.7920,3.0,4.51621251225,133.59375,5.50756825627, 
ADCP,ioos:station:wmo:42395:2,2019-05-03T19:00:00Z,26.4040,-90.7920,3.0,4.84666818676,136.40625,6.05832395394, 
ADCP,ioos:station:wmo:42395:2,2019-05-03T19:20:00Z,26.4040,-90.7920,3.0,4.62635688409,139.92188,5.61772390761, 
ADCP,ioos:station:wmo:42395:2,2019-05-03T19:40:00Z,26.4040,-90.7920,3.0,4.29590120958,142.73438,5.61772390761, 
ADCP,ioos:station:wmo:42395:2,2019-05-03T20:00:00Z,26.4040,-90.7920,3.0,4.18575683775,141.32813,5.2872682331, 
ADCP,ioos:station:wmo:42395:2,2019-05-03T20:20:00Z,26.4040,-90.7920,3.0,4.62635688409,139.92188,5.72787955894, 
ADCP,ioos:station:wmo:42395:2,2019-05-03T20:40:00Z,26.4040,-90.7920,3.0,4.84666818676,135.70313,5.94817958211, 
ADCP,ioos:station:wmo:42395:2,2019-05-03T21:00:00Z,26.4040,-90.7920,3.0,4.73651253542,135.70313,5.72787955894, 
ADCP,ioos:station:wmo:42395:2,2019-05-03T21:20:00Z,26.4040,-90.7920,3.0,4.62635688409,132.1875,5.61772390761, 
ADCP,ioos:station:wmo:42395:2,2019-05-03T21:40:00Z,26.4040,-90.7920,3.0,4.62635688409,128.67188,5.72787955894, 
ADCP,ioos:station:wmo:42395:2,2019-05-03T22:00:00Z,26.4040,-90.7920,3.0,5.06696820993,128.67188,6.16847960528, 
ADCP,ioos:station:wmo:42395:2,2019-05-03T22:20:00Z,26.4040,-90.7920,3.0,4.73651253542,129.375,5.61772390761, 
ADCP,ioos:station:wmo:42395:2,2019-05-03T22:40:00Z,26.4040,-90.7920,3.0,4.84666818676,129.375,5.94817958211, 
ADCP,ioos:station:wmo:42395:2,2019-05-03T23:00:00Z,26.4040,-90.7920,3.0,5.17711258176,130.07813,6.49893527979, 